| time (UTC) | temp F | wind direction | speed MPH | gust MPH | rain 1hr in | rain 24hr in | rain mn in | humidity % | barometer mb |
| 20260904204055 | 94 | 34 | 1.0 | 3.0 | 0.00 | 0.00 | 0.00 | 60 | 1012.3 |
| 20260904203555 | 94 | 85 | 0.0 | 2.0 | 0.00 | 0.00 | 0.00 | 61 | 1012.3 |
| 20260904203103 | 93 | 0 | 1.0 | 3.0 | 0.00 | 0.00 | 0.00 | 60 | 1012.3 |
| 20260904202555 | 93 | 0 | 1.0 | 3.0 | 0.00 | 0.00 | 0.00 | 61 | 1012.3 |
| 20260904202054 | 94 | 252 | 1.0 | 2.0 | 0.00 | 0.00 | 0.00 | 60 | 1012.3 |
| 20260904201609 | 93 | 290 | 0.0 | 2.0 | 0.00 | 0.00 | 0.00 | 62 | 1012.3 |
| 20260904201051 | 92 | 0 | 0.0 | 4.0 | 0.00 | 0.00 | 0.00 | 63 | 1012.3 |
| 20260904200552 | 92 | 53 | 2.0 | 4.0 | 0.00 | 0.00 | 0.00 | 63 | 1012.3 |
| 20260904200106 | 93 | 290 | 2.0 | 5.0 | 0.00 | 0.00 | 0.00 | 64 | 1012.4 |
| 20260904195552 | 92 | 38 | 1.0 | 5.0 | 0.00 | 0.00 | 0.00 | 64 | 1012.3 |
| 20260904195052 | 93 | 37 | 1.0 | 3.0 | 0.00 | 0.00 | 0.00 | 62 | 1012.2 |
| 20260904194603 | 93 | 295 | 0.0 | 4.0 | 0.00 | 0.00 | 0.00 | 66 | 1012.3 |
| 20260904194056 | 93 | 266 | 0.0 | 4.0 | 0.00 | 0.00 | 0.00 | 63 | 1012.3 |
| 20260904193556 | 93 | 261 | 0.0 | 3.0 | 0.00 | 0.00 | 0.00 | 62 | 1012.3 |
| 20260904193125 | 93 | 282 | 0.0 | 2.0 | 0.00 | 0.00 | 0.00 | 65 | 1012.3 |
| 20260904192556 | 93 | 264 | 0.0 | 3.0 | 0.00 | 0.00 | 0.00 | 63 | 1012.3 |
| 20260904192056 | 93 | 229 | 1.0 | 3.0 | 0.00 | 0.00 | 0.00 | 64 | 1012.4 |
| 20260904191602 | 93 | 235 | 1.0 | 4.0 | 0.00 | 0.00 | 0.00 | 63 | 1012.4 |
| 20260904191057 | 92 | 0 | 0.0 | 5.0 | 0.00 | 0.00 | 0.00 | 65 | 1012.5 |
| 20260904190557 | 92 | 27 | 2.0 | 5.0 | 0.00 | 0.00 | 0.00 | 62 | 1012.4 |
| 20260904190111 | 93 | 255 | 0.0 | 3.0 | 0.00 | 0.00 | 0.00 | 62 | 1012.5 |
| 20260904185556 | 93 | 245 | 1.0 | 3.0 | 0.00 | 0.00 | 0.00 | 61 | 1012.4 |
| 20260904185056 | 93 | 156 | 1.0 | 3.0 | 0.00 | 0.00 | 0.00 | 62 | 1012.5 |
| 20260904184604 | 93 | 0 | 0.0 | 3.0 | 0.00 | 0.00 | 0.00 | 62 | 1012.5 |
| 20260904184057 | 93 | 77 | 1.0 | 3.0 | 0.00 | 0.00 | 0.00 | 62 | 1012.4 |
| 20260904183556 | 93 | 187 | 0.0 | 3.0 | 0.00 | 0.00 | 0.00 | 64 | 1012.5 |
| 20260904183107 | 93 | 270 | 1.0 | 3.0 | 0.00 | 0.00 | 0.00 | 64 | 1012.5 |
| 20260904182557 | 93 | 279 | 0.0 | 2.0 | 0.00 | 0.00 | 0.00 | 64 | 1012.5 |
| 20260904182059 | 92 | 0 | 0.0 | 6.0 | 0.00 | 0.00 | 0.00 | 68 | 1012.5 |
| 20260904181603 | 91 | 258 | 1.0 | 6.0 | 0.00 | 0.00 | 0.00 | 65 | 1012.5 |
| 20260904181056 | 92 | 174 | 2.0 | 5.0 | 0.00 | 0.00 | 0.00 | 66 | 1012.5 |
| 20260904180556 | 91 | 276 | 1.0 | 3.0 | 0.00 | 0.00 | 0.00 | 67 | 1012.4 |
| 20260904180108 | 91 | 197 | 0.0 | 4.0 | 0.00 | 0.00 | 0.00 | 66 | 1012.3 |
| 20260904175556 | 91 | 245 | 2.0 | 4.0 | 0.00 | 0.00 | 0.00 | 65 | 1012.4 |
| 20260904175056 | 91 | 202 | 1.0 | 3.0 | 0.00 | 0.00 | 0.00 | 68 | 1012.4 |
| 20260904174611 | 91 | 124 | 0.0 | 3.0 | 0.00 | 0.00 | 0.00 | 67 | 1012.4 |
| 20260904174055 | 91 | 203 | 0.0 | 4.0 | 0.00 | 0.00 | 0.00 | 68 | 1012.3 |
| 20260904173555 | 90 | 246 | 0.0 | 5.0 | 0.00 | 0.00 | 0.00 | 67 | 1012.4 |
| 20260904173107 | 89 | 265 | 2.0 | 5.0 | 0.00 | 0.00 | 0.00 | 69 | 1012.4 |
| 20260904172556 | 90 | 259 | 2.0 | 5.0 | 0.00 | 0.00 | 0.00 | 67 | 1012.3 |
| 20260904172056 | 90 | 205 | 2.0 | 4.0 | 0.00 | 0.00 | 0.00 | 70 | 1012.4 |
| 20260904171602 | 90 | 278 | 2.0 | 4.0 | 0.00 | 0.00 | 0.00 | 70 | 1012.3 |
| 20260904171055 | 90 | 198 | 1.0 | 4.0 | 0.00 | 0.00 | 0.00 | 68 | 1012.3 |
| 20260904170556 | 90 | 264 | 1.0 | 4.0 | 0.00 | 0.00 | 0.00 | 68 | 1012.2 |
| 20260904170107 | 90 | 155 | 1.0 | 5.0 | 0.00 | 0.00 | 0.00 | 68 | 1012.3 |
| 20260904165556 | 89 | 175 | 1.0 | 5.0 | 0.00 | 0.02 | 0.00 | 71 | 1012.1 |
| 20260904165056 | 89 | 148 | 3.0 | 5.0 | 0.00 | 0.02 | 0.00 | 70 | 1012.1 |
| 20260904164641 | 89 | 142 | 2.0 | 5.0 | 0.00 | 0.02 | 0.00 | 72 | 1012.1 |
| 20260904164056 | 89 | 183 | 2.0 | 4.0 | 0.00 | 0.02 | 0.00 | 71 | 1012.2 |
| 20260904163556 | 89 | 146 | 1.0 | 3.0 | 0.00 | 0.02 | 0.00 | 73 | 1012.1 |
| 20260904163105 | 88 | 130 | 0.0 | 5.0 | 0.00 | 0.02 | 0.00 | 72 | 1012.2 |
| 20260904162556 | 88 | 150 | 1.0 | 5.0 | 0.00 | 0.02 | 0.00 | 72 | 1012.3 |
| 20260904162057 | 87 | 131 | 1.0 | 3.0 | 0.00 | 0.02 | 0.00 | 73 | 1012.3 |
| 20260904161610 | 86 | 174 | 0.0 | 5.0 | 0.00 | 0.02 | 0.00 | 74 | 1012.2 |
| 20260904161056 | 86 | 68 | 1.0 | 5.0 | 0.00 | 0.02 | 0.00 | 76 | 1012.2 |
| 20260904160555 | 85 | 51 | 2.0 | 4.0 | 0.00 | 0.02 | 0.00 | 75 | 1012.2 |
| 20260904160107 | 86 | 94 | 1.0 | 4.0 | 0.00 | 0.02 | 0.00 | 75 | 1012.2 |
| 20260904155553 | 85 | 57 | 1.0 | 4.0 | 0.00 | 0.02 | 0.00 | 75 | 1012.2 |
| 20260904155051 | 85 | 34 | 2.0 | 4.0 | 0.00 | 0.02 | 0.00 | 76 | 1012.1 |
| 20260904154605 | 85 | 48 | 1.0 | 4.0 | 0.00 | 0.02 | 0.00 | 75 | 1012.0 |
| 20260904154051 | 85 | 350 | 0.0 | 4.0 | 0.00 | 0.02 | 0.00 | 76 | 1012.1 |
| 20260904153551 | 84 | 0 | 2.0 | 4.0 | 0.00 | 0.02 | 0.00 | 74 | 1012.1 |
| 20260904153104 | 85 | 78 | 0.0 | 3.0 | 0.00 | 0.02 | 0.00 | 74 | 1012.0 |
| 20260904152551 | 84 | 37 | 1.0 | 3.0 | 0.00 | 0.02 | 0.00 | 76 | 1012.0 |
| 20260904152054 | 85 | 51 | 1.0 | 3.0 | 0.00 | 0.02 | 0.00 | 73 | 1012.1 |
| 20260904151605 | 85 | 0 | 0.0 | 2.0 | 0.00 | 0.02 | 0.00 | 75 | 1012.0 |
| 20260904151052 | 84 | 0 | 0.0 | 2.0 | 0.00 | 0.02 | 0.00 | 74 | 1012.1 |
| 20260904150552 | 84 | 329 | 0.0 | 2.0 | 0.00 | 0.02 | 0.00 | 75 | 1012.1 |
| 20260904150057 | 84 | 0 | 0.0 | 3.0 | 0.00 | 0.02 | 0.00 | 76 | 1012.1 |
| 20260904145552 | 84 | 0 | 0.0 | 4.0 | 0.00 | 0.02 | 0.00 | 77 | 1012.1 |
| 20260904145054 | 83 | 225 | 0.0 | 4.0 | 0.00 | 0.02 | 0.00 | 77 | 1012.1 |
| 20260904144614 | 83 | 220 | 1.0 | 4.0 | 0.00 | 0.02 | 0.00 | 77 | 1012.2 |
| 20260904144051 | 83 | 0 | 1.0 | 3.0 | 0.00 | 0.02 | 0.00 | 78 | 1012.1 |
| 20260904143553 | 83 | 242 | 1.0 | 3.0 | 0.00 | 0.02 | 0.00 | 77 | 1012.0 |
| 20260904143113 | 82 | 238 | 0.0 | 2.0 | 0.00 | 0.02 | 0.00 | 77 | 1012.0 |
| 20260904142553 | 82 | 0 | 0.0 | 2.0 | 0.00 | 0.02 | 0.00 | 79 | 1012.0 |
| 20260904142053 | 81 | 248 | 1.0 | 2.0 | 0.00 | 0.02 | 0.00 | 78 | 1012.0 |
| 20260904141605 | 81 | 269 | 0.0 | 3.0 | 0.00 | 0.02 | 0.00 | 79 | 1012.0 |
| 20260904141053 | 81 | 263 | 0.0 | 4.0 | 0.00 | 0.02 | 0.00 | 80 | 1012.0 |
| 20260904140554 | 81 | 269 | 1.0 | 4.0 | 0.00 | 0.02 | 0.00 | 80 | 1011.9 |
| 20260904140101 | 80 | 0 | 2.0 | 4.0 | 0.00 | 0.02 | 0.00 | 80 | 1011.8 |
| 20260904135554 | 80 | 173 | 1.0 | 5.0 | 0.00 | 0.02 | 0.00 | 80 | 1011.9 |
| 20260904135054 | 80 | 257 | 2.0 | 5.0 | 0.00 | 0.02 | 0.00 | 80 | 1011.9 |
| 20260904134608 | 80 | 198 | 1.0 | 3.0 | 0.00 | 0.02 | 0.00 | 81 | 1011.9 |
| 20260904134054 | 80 | 179 | 0.0 | 3.0 | 0.00 | 0.02 | 0.00 | 82 | 1011.9 |
| 20260904133553 | 79 | 189 | 1.0 | 3.0 | 0.00 | 0.02 | 0.00 | 83 | 1011.9 |
| 20260904133117 | 78 | 219 | 1.0 | 3.0 | 0.00 | 0.02 | 0.00 | 84 | 1011.9 |
| 20260904132554 | 78 | 258 | 1.0 | 3.0 | 0.00 | 0.02 | 0.00 | 85 | 1011.9 |
| 20260904132054 | 77 | 265 | 0.0 | 3.0 | 0.00 | 0.02 | 0.00 | 86 | 1011.8 |
| 20260904131606 | 77 | 264 | 1.0 | 3.0 | 0.00 | 0.02 | 0.00 | 86 | 1011.7 |
| 20260904131054 | 76 | 278 | 1.0 | 3.0 | 0.00 | 0.02 | 0.00 | 86 | 1011.7 |
| 20260904130554 | 76 | 207 | 1.0 | 3.0 | 0.00 | 0.02 | 0.00 | 88 | 1011.6 |
| 20260904130059 | 75 | 264 | 1.0 | 3.0 | 0.00 | 0.02 | 0.00 | 89 | 1011.6 |
| 20260904125556 | 75 | 277 | 0.0 | 3.0 | 0.00 | 0.05 | 0.00 | 89 | 1011.5 |
| 20260904125055 | 74 | 213 | 0.0 | 4.0 | 0.00 | 0.05 | 0.00 | 89 | 1011.5 |
| 20260904124609 | 74 | 238 | 1.0 | 4.0 | 0.00 | 0.05 | 0.00 | 90 | 1011.4 |
| 20260904124055 | 74 | 211 | 1.0 | 4.0 | 0.00 | 0.05 | 0.00 | 90 | 1011.4 |
| 20260904123553 | 73 | 206 | 1.0 | 3.0 | 0.00 | 0.05 | 0.00 | 91 | 1011.4 |
| 20260904123104 | 73 | 200 | 2.0 | 3.0 | 0.00 | 0.05 | 0.00 | 92 | 1011.3 |
| 20260904122553 | 72 | 198 | 1.0 | 3.0 | 0.00 | 0.05 | 0.00 | 93 | 1011.3 |
| 20260904122056 | 72 | 161 | 1.0 | 3.0 | 0.00 | 0.05 | 0.00 | 93 | 1011.2 |
| 20260904121604 | 72 | 269 | 1.0 | 3.0 | 0.00 | 0.05 | 0.00 | 93 | 1011.3 |
| 20260904121053 | 71 | 257 | 2.0 | 3.0 | 0.00 | 0.05 | 0.00 | 94 | 1011.2 |
| 20260904120553 | 71 | 269 | 1.0 | 3.0 | 0.00 | 0.05 | 0.00 | 93 | 1011.1 |
| 20260904120106 | 71 | 198 | 1.0 | 2.0 | 0.00 | 0.05 | 0.00 | 94 | 1011.3 |
| 20260904115553 | 71 | 195 | 0.0 | 2.0 | 0.00 | 0.05 | 0.00 | 94 | 1011.2 |
| 20260904115055 | 71 | 261 | 1.0 | 2.0 | 0.00 | 0.05 | 0.00 | 94 | 1011.1 |
| 20260904114605 | 71 | 283 | 1.0 | 2.0 | 0.00 | 0.05 | 0.00 | 94 | 1011.1 |
| 20260904114054 | 71 | 281 | 0.0 | 2.0 | 0.00 | 0.05 | 0.00 | 93 | 1011.1 |
| 20260904113558 | 71 | 0 | 0.0 | 1.0 | 0.00 | 0.05 | 0.00 | 93 | 1011.1 |
| 20260904113106 | 71 | 0 | 0.0 | 2.0 | 0.00 | 0.05 | 0.00 | 94 | 1011.1 |
| 20260904112553 | 71 | 243 | 0.0 | 2.0 | 0.00 | 0.05 | 0.00 | 94 | 1011.1 |
| 20260904112053 | 71 | 281 | 1.0 | 2.0 | 0.00 | 0.05 | 0.00 | 94 | 1011.0 |
| 20260904111607 | 71 | 267 | 0.0 | 3.0 | 0.00 | 0.05 | 0.00 | 93 | 1011.0 |
| 20260904111055 | 71 | 256 | 0.0 | 3.0 | 0.00 | 0.05 | 0.00 | 93 | 1011.0 |
| 20260904110559 | 71 | 0 | 1.0 | 3.0 | 0.00 | 0.05 | 0.00 | 93 | 1010.9 |
| 20260904110105 | 72 | 0 | 0.0 | 3.0 | 0.00 | 0.05 | 0.00 | 93 | 1010.9 |
| 20260904105555 | 72 | 213 | 0.0 | 2.0 | 0.00 | 0.05 | 0.00 | 93 | 1010.9 |
| 20260904105054 | 72 | 271 | 0.0 | 2.0 | 0.00 | 0.05 | 0.00 | 93 | 1010.9 |
| 20260904104613 | 72 | 250 | 1.0 | 3.0 | 0.00 | 0.05 | 0.00 | 93 | 1010.9 |
| 20260904104055 | 72 | 264 | 1.0 | 4.0 | 0.00 | 0.05 | 0.00 | 93 | 1010.9 |
| 20260904103555 | 72 | 273 | 1.0 | 4.0 | 0.00 | 0.05 | 0.00 | 93 | 1011.0 |
| 20260904103110 | 72 | 276 | 2.0 | 5.0 | 0.00 | 0.05 | 0.00 | 93 | 1010.9 |
| 20260904102556 | 72 | 299 | 1.0 | 5.0 | 0.00 | 0.05 | 0.00 | 93 | 1011.0 |
| 20260904102055 | 72 | 207 | 1.0 | 3.0 | 0.00 | 0.05 | 0.00 | 93 | 1011.0 |
| 20260904101604 | 72 | 205 | 2.0 | 4.0 | 0.00 | 0.05 | 0.00 | 92 | 1011.0 |
| 20260904101055 | 73 | 219 | 1.0 | 4.0 | 0.00 | 0.05 | 0.00 | 91 | 1011.0 |
| 20260904100555 | 73 | 198 | 1.0 | 4.0 | 0.00 | 0.05 | 0.00 | 91 | 1011.0 |
| 20260904100122 | 73 | 0 | 0.0 | 2.0 | 0.00 | 0.05 | 0.00 | 91 | 1011.0 |
| 20260904095557 | 73 | 229 | 1.0 | 3.0 | 0.00 | 0.08 | 0.00 | 91 | 1010.9 |
| 20260904095053 | 74 | 262 | 1.0 | 3.0 | 0.00 | 0.08 | 0.00 | 91 | 1010.9 |
| 20260904094610 | 74 | 272 | 1.0 | 4.0 | 0.00 | 0.08 | 0.00 | 91 | 1010.9 |
| 20260904094052 | 74 | 283 | 2.0 | 4.0 | 0.00 | 0.08 | 0.00 | 91 | 1010.9 |
| 20260904093556 | 74 | 266 | 2.0 | 6.0 | 0.00 | 0.08 | 0.00 | 91 | 1010.9 |
| 20260904093114 | 74 | 178 | 2.0 | 6.0 | 0.00 | 0.08 | 0.00 | 91 | 1010.9 |
| 20260904092553 | 73 | 169 | 1.0 | 4.0 | 0.00 | 0.08 | 0.00 | 92 | 1010.7 |
| 20260904092053 | 73 | 91 | 2.0 | 3.0 | 0.00 | 0.08 | 0.00 | 92 | 1010.8 |
| 20260904091607 | 73 | 265 | 2.0 | 3.0 | 0.00 | 0.08 | 0.00 | 92 | 1010.7 |
| 20260904091053 | 73 | 249 | 1.0 | 3.0 | 0.00 | 0.08 | 0.00 | 93 | 1010.6 |
| 20260904090552 | 73 | 264 | 1.0 | 3.0 | 0.00 | 0.08 | 0.00 | 93 | 1010.6 |
| 20260904090103 | 72 | 242 | 1.0 | 3.0 | 0.00 | 0.08 | 0.00 | 93 | 1010.6 |
| 20260904085554 | 72 | 255 | 1.0 | 3.0 | 0.00 | 0.08 | 0.00 | 93 | 1010.6 |
| 20260904085055 | 72 | 0 | 1.0 | 3.0 | 0.00 | 0.08 | 0.00 | 93 | 1010.6 |
| 20260904084610 | 73 | 203 | 1.0 | 3.0 | 0.00 | 0.08 | 0.00 | 93 | 1010.6 |
| 20260904084055 | 73 | 238 | 1.0 | 2.0 | 0.00 | 0.08 | 0.00 | 93 | 1010.4 |
| 20260904083553 | 73 | 225 | 1.0 | 2.0 | 0.00 | 0.08 | 0.00 | 93 | 1010.4 |
| 20260904083106 | 73 | 239 | 0.0 | 2.0 | 0.00 | 0.08 | 0.00 | 93 | 1010.3 |
| 20260904082553 | 73 | 259 | 0.0 | 3.0 | 0.00 | 0.08 | 0.00 | 93 | 1010.3 |
| 20260904082052 | 73 | 261 | 0.0 | 4.0 | 0.00 | 0.08 | 0.00 | 93 | 1010.3 |
| 20260904081606 | 73 | 275 | 1.0 | 4.0 | 0.00 | 0.08 | 0.00 | 93 | 1010.3 |
| 20260904081052 | 73 | 264 | 1.0 | 4.0 | 0.00 | 0.08 | 0.00 | 93 | 1010.3 |
| 20260904080554 | 73 | 246 | 2.0 | 4.0 | 0.00 | 0.08 | 0.00 | 93 | 1010.3 |
| 20260904080104 | 73 | 203 | 2.0 | 5.0 | 0.00 | 0.08 | 0.00 | 93 | 1010.1 |
| 20260904075554 | 73 | 226 | 2.0 | 5.0 | 0.00 | 0.08 | 0.00 | 93 | 1010.1 |
| 20260904075055 | 73 | 238 | 2.0 | 5.0 | 0.00 | 0.08 | 0.00 | 93 | 1010.2 |
| 20260904074609 | 73 | 264 | 2.0 | 5.0 | 0.00 | 0.08 | 0.00 | 93 | 1010.3 |
| 20260904074053 | 73 | 23 | 1.0 | 5.0 | 0.00 | 0.08 | 0.00 | 93 | 1010.3 |
| 20260904073553 | 73 | 255 | 2.0 | 5.0 | 0.00 | 0.08 | 0.00 | 93 | 1010.4 |
| 20260904073104 | 73 | 204 | 1.0 | 5.0 | 0.00 | 0.08 | 0.00 | 93 | 1010.4 |
| 20260904072552 | 73 | 242 | 1.0 | 4.0 | 0.00 | 0.08 | 0.00 | 93 | 1010.4 |
| 20260904072053 | 73 | 147 | 1.0 | 3.0 | 0.00 | 0.08 | 0.00 | 93 | 1010.4 |
| 20260904071628 | 73 | 278 | 0.0 | 3.0 | 0.00 | 0.08 | 0.00 | 93 | 1010.5 |
| 20260904071053 | 73 | 0 | 0.0 | 4.0 | 0.00 | 0.08 | 0.00 | 92 | 1010.4 |
| 20260904070553 | 73 | 291 | 1.0 | 4.0 | 0.00 | 0.08 | 0.00 | 92 | 1010.5 |
| 20260904070115 | 74 | 292 | 1.0 | 5.0 | 0.00 | 0.08 | 0.00 | 92 | 1010.6 |
| 20260904065553 | 74 | 240 | 2.0 | 5.0 | 0.00 | 0.08 | 0.00 | 92 | 1010.5 |
| 20260904065053 | 74 | 200 | 1.0 | 5.0 | 0.00 | 0.08 | 0.00 | 93 | 1010.5 |
| 20260904064610 | 74 | 155 | 1.0 | 4.0 | 0.00 | 0.08 | 0.00 | 93 | 1010.7 |
| 20260904064056 | 74 | 308 | 1.0 | 4.0 | 0.00 | 0.08 | 0.00 | 93 | 1010.6 |
| 20260904063555 | 74 | 0 | 0.0 | 4.0 | 0.00 | 0.08 | 0.00 | 93 | 1010.6 |
| 20260904063058 | 73 | 207 | 1.0 | 3.0 | 0.00 | 0.08 | 0.00 | 94 | 1010.6 |
| 20260904062552 | 73 | 213 | 0.0 | 3.0 | 0.00 | 0.08 | 0.00 | 94 | 1010.7 |
| 20260904062053 | 73 | 87 | 1.0 | 3.0 | 0.00 | 0.08 | 0.00 | 94 | 1010.7 |
| 20260904061608 | 73 | 199 | 0.0 | 1.0 | 0.00 | 0.08 | 0.00 | 94 | 1010.7 |
| 20260904061053 | 73 | 192 | 0.0 | 1.0 | 0.00 | 0.08 | 0.00 | 94 | 1010.6 |
| 20260904060553 | 73 | 189 | 0.0 | 1.0 | 0.00 | 0.08 | 0.00 | 94 | 1010.6 |
| 20260904060108 | 73 | 0 | 0.0 | 1.0 | 0.00 | 0.08 | 0.00 | 93 | 1010.6 |
| 20260904055554 | 73 | 141 | 0.0 | 1.0 | 0.00 | 0.08 | 0.00 | 93 | 1010.7 |
| 20260904055052 | 73 | 0 | 0.0 | 1.0 | 0.00 | 0.08 | 0.00 | 93 | 1010.7 |
| 20260904054606 | 73 | 0 | 0.0 | 1.0 | 0.00 | 0.08 | 0.00 | 93 | 1010.7 |
| 20260904054053 | 73 | 224 | 0.0 | 1.0 | 0.00 | 0.08 | 0.00 | 93 | 1010.7 |
| 20260904053553 | 73 | 0 | 0.0 | 1.0 | 0.00 | 0.08 | 0.00 | 93 | 1010.6 |
| 20260904053108 | 73 | 295 | 0.0 | 1.0 | 0.00 | 0.08 | 0.00 | 93 | 1010.7 |
| 20260904052553 | 73 | 58 | 0.0 | 1.0 | 0.00 | 0.08 | 0.00 | 93 | 1010.7 |
| 20260904052053 | 73 | 0 | 0.0 | 1.0 | 0.00 | 0.08 | 0.00 | 93 | 1010.6 |
| 20260904051607 | 73 | 0 | 0.0 | 1.0 | 0.00 | 0.08 | 0.00 | 93 | 1010.6 |
| 20260904051052 | 73 | 0 | 0.0 | 1.0 | 0.00 | 0.08 | 0.00 | 93 | 1010.6 |
| 20260904050554 | 73 | 247 | 0.0 | 2.0 | 0.00 | 0.08 | 0.00 | 93 | 1010.5 |
| 20260904050107 | 73 | 266 | 0.0 | 2.0 | 0.00 | 0.08 | 0.00 | 93 | 1010.6 |
| 20260904045553 | 73 | 0 | 0.0 | 1.0 | 0.00 | 0.08 | 0.08 | 92 | 1010.6 |
| 20260904045056 | 73 | 117 | 0.0 | 1.0 | 0.00 | 0.08 | 0.08 | 92 | 1010.6 |
| 20260904044622 | 73 | 0 | 0.0 | 1.0 | 0.00 | 0.08 | 0.08 | 92 | 1010.7 |
| 20260904044054 | 73 | 193 | 0.0 | 1.0 | 0.00 | 0.08 | 0.08 | 92 | 1010.6 |
| 20260904043552 | 73 | 0 | 0.0 | 1.0 | 0.00 | 0.08 | 0.08 | 92 | 1010.6 |
| 20260904043106 | 74 | 126 | 0.0 | 2.0 | 0.00 | 0.08 | 0.08 | 92 | 1010.6 |
| 20260904042553 | 74 | 0 | 0.0 | 3.0 | 0.00 | 0.08 | 0.08 | 91 | 1010.6 |
| 20260904042052 | 74 | 195 | 0.0 | 3.0 | 0.00 | 0.08 | 0.08 | 91 | 1010.7 |
| 20260904041620 | 74 | 240 | 0.0 | 2.0 | 0.00 | 0.08 | 0.08 | 91 | 1010.6 |
| 20260904041052 | 74 | 203 | 0.0 | 3.0 | 0.00 | 0.08 | 0.08 | 91 | 1010.6 |
| 20260904040552 | 74 | 0 | 0.0 | 3.0 | 0.00 | 0.08 | 0.08 | 91 | 1010.7 |
| 20260904040109 | 74 | 139 | 0.0 | 2.0 | 0.00 | 0.08 | 0.08 | 91 | 1010.7 |
| 20260904035553 | 74 | 0 | 0.0 | 2.0 | 0.00 | 0.08 | 0.08 | 90 | 1010.7 |
| 20260904035052 | 74 | 199 | 0.0 | 2.0 | 0.00 | 0.08 | 0.08 | 90 | 1010.6 |
| 20260904034606 | 74 | 174 | 0.0 | 3.0 | 0.00 | 0.08 | 0.08 | 90 | 1010.7 |
| 20260904034053 | 74 | 229 | 0.0 | 3.0 | 0.00 | 0.08 | 0.08 | 90 | 1010.6 |
| 20260904033553 | 75 | 133 | 0.0 | 1.0 | 0.00 | 0.08 | 0.08 | 90 | 1010.7 |
| 20260904033104 | 75 | 288 | 0.0 | 2.0 | 0.00 | 0.08 | 0.08 | 90 | 1010.6 |
| 20260904032552 | 75 | 286 | 0.0 | 2.0 | 0.00 | 0.08 | 0.08 | 89 | 1010.7 |
| 20260904032052 | 75 | 203 | 1.0 | 2.0 | 0.00 | 0.08 | 0.08 | 89 | 1010.6 |
| 20260904031616 | 75 | 0 | 0.0 | 5.0 | 0.00 | 0.08 | 0.08 | 89 | 1010.6 |
| 20260904031052 | 75 | 193 | 0.0 | 5.0 | 0.00 | 0.08 | 0.08 | 89 | 1010.6 |
| 20260904030552 | 75 | 148 | 1.0 | 3.0 | 0.00 | 0.08 | 0.08 | 89 | 1010.6 |
| 20260904030105 | 75 | 200 | 0.0 | 3.0 | 0.00 | 0.08 | 0.08 | 89 | 1010.6 |
| 20260904025552 | 75 | 108 | 0.0 | 3.0 | 0.00 | 0.08 | 0.08 | 89 | 1010.6 |
| 20260904025052 | 75 | 197 | 0.0 | 3.0 | 0.00 | 0.08 | 0.08 | 89 | 1010.4 |
| 20260904024610 | 75 | 196 | 0.0 | 3.0 | 0.00 | 0.08 | 0.08 | 89 | 1010.5 |
| 20260904024056 | 75 | 152 | 0.0 | 4.0 | 0.00 | 0.08 | 0.08 | 89 | 1010.6 |
| 20260904023551 | 75 | 266 | 0.0 | 4.0 | 0.00 | 0.08 | 0.08 | 89 | 1010.7 |
| 20260904023058 | 75 | 127 | 0.0 | 4.0 | 0.00 | 0.08 | 0.08 | 89 | 1010.6 |
| 20260904022556 | 75 | 167 | 1.0 | 4.0 | 0.00 | 0.08 | 0.08 | 89 | 1010.5 |
| 20260904022053 | 75 | 164 | 0.0 | 4.0 | 0.00 | 0.08 | 0.08 | 89 | 1010.6 |
| 20260904021608 | 75 | 129 | 0.0 | 3.0 | 0.00 | 0.08 | 0.08 | 88 | 1010.6 |
| 20260904021053 | 75 | 165 | 0.0 | 4.0 | 0.00 | 0.08 | 0.08 | 88 | 1010.6 |
| 20260904020556 | 76 | 0 | 1.0 | 4.0 | 0.00 | 0.08 | 0.08 | 88 | 1010.5 |
| 20260904020105 | 76 | 0 | 0.0 | 4.0 | 0.00 | 0.08 | 0.08 | 87 | 1010.5 |
| 20260904015557 | 76 | 157 | 1.0 | 3.0 | 0.00 | 0.08 | 0.08 | 87 | 1010.5 |
| 20260904015056 | 76 | 137 | 0.0 | 2.0 | 0.00 | 0.08 | 0.08 | 86 | 1010.5 |
| 20260904014612 | 77 | 162 | 0.0 | 3.0 | 0.00 | 0.08 | 0.08 | 86 | 1010.4 |
| 20260904014058 | 77 | 224 | 1.0 | 4.0 | 0.00 | 0.08 | 0.08 | 86 | 1010.4 |
| 20260904013556 | 77 | 181 | 2.0 | 4.0 | 0.00 | 0.08 | 0.08 | 85 | 1010.3 |
| 20260904013103 | 77 | 173 | 0.0 | 4.0 | 0.00 | 0.08 | 0.08 | 85 | 1010.3 |
| 20260904012557 | 77 | 0 | 1.0 | 4.0 | 0.00 | 0.08 | 0.08 | 85 | 1010.3 |
| 20260904012056 | 77 | 214 | 1.0 | 4.0 | 0.00 | 0.08 | 0.08 | 85 | 1010.2 |
| 20260904011608 | 77 | 143 | 2.0 | 6.0 | 0.00 | 0.08 | 0.08 | 85 | 1010.2 |
| 20260904011056 | 77 | 185 | 3.0 | 6.0 | 0.00 | 0.08 | 0.08 | 86 | 1010.0 |
| 20260904010556 | 78 | 188 | 3.0 | 6.0 | 0.00 | 0.08 | 0.08 | 86 | 1010.0 |
| 20260904010101 | 78 | 162 | 2.0 | 4.0 | 0.00 | 0.08 | 0.08 | 85 | 1010.1 |
| 20260904005558 | 78 | 178 | 2.0 | 3.0 | 0.00 | 0.08 | 0.08 | 85 | 1010.1 |
| 20260904005056 | 78 | 165 | 2.0 | 4.0 | 0.00 | 0.08 | 0.08 | 85 | 1010.1 |
| 20260904004620 | 78 | 154 | 1.0 | 4.0 | 0.00 | 0.08 | 0.08 | 85 | 1010.2 |
| 20260904004057 | 78 | 158 | 1.0 | 3.0 | 0.00 | 0.08 | 0.08 | 84 | 1010.3 |
| 20260904003556 | 79 | 170 | 1.0 | 3.0 | 0.00 | 0.08 | 0.08 | 84 | 1010.3 |
| 20260904003105 | 79 | 155 | 0.0 | 1.0 | 0.00 | 0.08 | 0.08 | 83 | 1010.4 |
| 20260904002557 | 79 | 0 | 0.0 | 4.0 | 0.00 | 0.08 | 0.08 | 82 | 1010.3 |
| 20260904002057 | 79 | 0 | 0.0 | 6.0 | 0.00 | 0.08 | 0.08 | 82 | 1010.3 |
| 20260904001624 | 80 | 196 | 3.0 | 6.0 | 0.00 | 0.08 | 0.08 | 81 | 1010.3 |
| 20260904001056 | 80 | 164 | 3.0 | 6.0 | 0.00 | 0.08 | 0.08 | 81 | 1010.2 |
| 20260904000557 | 80 | 168 | 1.0 | 5.0 | 0.00 | 0.08 | 0.08 | 80 | 1010.3 |
| 20260904000118 | 81 | 174 | 2.0 | 5.0 | 0.00 | 0.08 | 0.08 | 79 | 1010.2 |
| 20260903235559 | 81 | 192 | 1.0 | 6.0 | 0.00 | 0.08 | 0.08 | 78 | 1010.3 |
| 20260903235056 | 81 | 212 | 0.0 | 6.0 | 0.00 | 0.08 | 0.08 | 77 | 1010.2 |
| 20260903234610 | 82 | 138 | 3.0 | 6.0 | 0.00 | 0.08 | 0.08 | 77 | 1010.1 |
| 20260903234057 | 82 | 146 | 2.0 | 6.0 | 0.00 | 0.08 | 0.08 | 76 | 1009.9 |
| 20260903233557 | 82 | 155 | 3.0 | 8.0 | 0.00 | 0.08 | 0.08 | 75 | 1010.0 |
| 20260903233114 | 83 | 129 | 3.0 | 8.0 | 0.00 | 0.08 | 0.08 | 75 | 1009.9 |
| 20260903232556 | 83 | 217 | 3.0 | 8.0 | 0.00 | 0.08 | 0.08 | 75 | 1009.9 |
| 20260903232057 | 83 | 195 | 3.0 | 8.0 | 0.00 | 0.08 | 0.08 | 74 | 1009.9 |
| 20260903231621 | 83 | 274 | 4.0 | 8.0 | 0.00 | 0.08 | 0.08 | 73 | 1009.9 |
| 20260903231056 | 83 | 196 | 4.0 | 8.0 | 0.00 | 0.08 | 0.08 | 73 | 1009.9 |
| 20260903230557 | 84 | 168 | 3.0 | 8.0 | 0.00 | 0.08 | 0.08 | 72 | 1009.9 |
| 20260903230105 | 84 | 135 | 4.0 | 10.0 | 0.00 | 0.08 | 0.08 | 71 | 1009.9 |
| 20260903225556 | 84 | 129 | 5.0 | 10.0 | 0.00 | 0.08 | 0.08 | 71 | 1009.8 |
| 20260903225057 | 85 | 166 | 4.0 | 9.0 | 0.00 | 0.08 | 0.08 | 70 | 1009.8 |
| 20260903224601 | 85 | 142 | 2.0 | 9.0 | 0.00 | 0.08 | 0.08 | 71 | 1009.8 |
| 20260903224056 | 85 | 207 | 4.0 | 11.0 | 0.00 | 0.08 | 0.08 | 71 | 1009.7 |
| 20260903223556 | 85 | 143 | 6.0 | 11.0 | 0.00 | 0.08 | 0.08 | 71 | 1009.7 |
| 20260903223110 | 85 | 163 | 4.0 | 8.0 | 0.00 | 0.08 | 0.08 | 71 | 1009.7 |
| 20260903222558 | 85 | 183 | 4.0 | 9.0 | 0.00 | 0.08 | 0.08 | 69 | 1009.8 |
| 20260903222056 | 85 | 180 | 5.0 | 9.0 | 0.00 | 0.08 | 0.08 | 70 | 1009.9 |
| 20260903221604 | 85 | 110 | 6.0 | 10.0 | 0.00 | 0.08 | 0.08 | 68 | 1010.0 |
| 20260903221056 | 85 | 150 | 5.0 | 10.0 | 0.00 | 0.08 | 0.08 | 69 | 1010.0 |
| 20260903220556 | 84 | 102 | 5.0 | 10.0 | 0.00 | 0.08 | 0.08 | 69 | 1010.2 |
| 20260903220105 | 84 | 138 | 4.0 | 9.0 | 0.00 | 0.08 | 0.08 | 70 | 1010.1 |
| 20260903215557 | 84 | 180 | 2.0 | 8.0 | 0.00 | 0.08 | 0.08 | 71 | 1010.1 |
| 20260903215058 | 84 | 219 | 3.0 | 8.0 | 0.00 | 0.08 | 0.08 | 70 | 1010.2 |
| 20260903214606 | 84 | 147 | 5.0 | 10.0 | 0.00 | 0.08 | 0.08 | 68 | 1010.2 |
| 20260903214057 | 84 | 141 | 4.0 | 10.0 | 0.00 | 0.08 | 0.08 | 69 | 1010.1 |
| 20260903213556 | 84 | 184 | 3.0 | 10.0 | 0.00 | 0.08 | 0.08 | 67 | 1010.0 |
| 20260903213107 | 85 | 188 | 3.0 | 11.0 | 0.00 | 0.08 | 0.08 | 67 | 1010.0 |
| 20260903212556 | 85 | 178 | 3.0 | 11.0 | 0.00 | 0.08 | 0.08 | 66 | 1010.1 |
| 20260903212053 | 86 | 207 | 3.0 | 11.0 | 0.00 | 0.08 | 0.08 | 65 | 1010.1 |
| 20260903211603 | 86 | 122 | 3.0 | 11.0 | 0.00 | 0.08 | 0.08 | 64 | 1010.1 |
| 20260903211056 | 86 | 114 | 5.0 | 9.0 | 0.00 | 0.08 | 0.08 | 66 | 1010.1 |
| 20260903210559 | 86 | 191 | 4.0 | 10.0 | 0.00 | 0.08 | 0.08 | 67 | 1009.9 |
| 20260903205556 | 86 | 243 | 2.0 | 9.0 | 0.00 | 0.08 | 0.08 | 65 | 1010.4 |
| 20260903205058 | 85 | 127 | 3.0 | 9.0 | 0.00 | 0.08 | 0.08 | 67 | 1010.3 |
| 20260903204603 | 85 | 148 | 5.0 | 12.0 | 0.00 | 0.08 | 0.08 | 65 | 1010.3 |